English version Home page |
Updated on November 3, 2015 |
プロフィール
|
軌道要素Epoch 2015 June 27.0 TT = JDT 2457200.5 T 2015 June 8.79890 TT MPCW q 1.4552421 (2000.0) P Q z +0.0039128 Peri. 15.77207 -0.53146343 +0.77751520 +/-0.0000560 Node 223.71457 -0.82025170 -0.57145881 e 0.9943059 Incl. 29.10851 -0.21150362 +0.26249749 From 53 observations 2015 May 18-June 19, mean residual 0".4.
|
光度変化m1 = 20.0 + 5 logΔ + 10.0 log r
|
軌道要素はM.P.E.C. 2015-S97に掲載されたものです。
|